Regional Weather Roundup
Issued by NWS

Home | Current Version | Previous Version | Graphics & Text | Print | Product List | Glossary On
Versions: 1 2 3 4 5 6 7 8 9 10 11 12 13 14 15 16 17 18 19 20 21 22 23 24 25 26 27 28 29 30 31 32 33 34 35 36 37 38 39 40 41 42 43 44 45 46 47 48 49 50
000
ASUS43 KFSD 031002
RWRSD

WEATHER ROUNDUP FOR SOUTH DAKOTA
NATIONAL WEATHER SERVICE SIOUX FALLS SD
500 AM CDT FRI JUL 03 2015

NOTE: "FAIR" INDICATES FEW OR NO CLOUDS BELOW 12,000 FEET WITH NO
SIGNIFICANT WEATHER AND/OR OBSTRUCTIONS TO VISIBILITY.


SDZ001>005-009-010-012>017-031100-
NORTHWEST AND NORTH CENTRAL SOUTH DAKOTA

CITY           SKY/WX    TMP DP  RH WIND       PRES   REMARKS
BUFFALO          N/A     63  56  78 W5        30.00F
FAITH            N/A     62  57  83 SW5       30.04S
MOBRIDGE       CLEAR     62  62 100 CALM      29.98R FOG
$$

SDZ012>016-024>037-041>051-057-063-072>074-031100-
SOUTHWEST AND SOUTH CENTRAL SOUTH DAKOTA

CITY           SKY/WX    TMP DP  RH WIND       PRES   REMARKS
RAPID CTY ARPT CLEAR     60  56  86 NW8       30.08S
PIERRE         FOG       62  62 100 SW3       29.99S VSB 1/4
CUSTER         CLEAR     54  49  83 NW6       30.20S
ELLSWORTH AFB  CLEAR     61  56  84 W3        30.07F
PHILIP         CLEAR     59  58  96 W3        30.03S
PINE RIDGE     CLEAR     55  53  93 CALM      30.09S FOG
WINNER         PTSUNNY   62  59  90 S5        30.01F FOG
$$

SDZ004>011-016>023-039-040-031100-
NORTHEAST SOUTH DAKOTA

CITY           SKY/WX    TMP DP  RH WIND       PRES   REMARKS
ABERDEEN       CLEAR     60  59  96 S6        29.97S FOG
WATERTOWN      CLEAR     56  54  93 CALM      29.99S FOG
BROOKINGS      CLEAR     54  50  87 CALM      30.02F
SISSETON         N/A     65  60  84 W9        29.95R
$$

SDZ017-020-022-023-036>040-048>070-031100-
SOUTHEAST SOUTH DAKOTA

CITY           SKY/WX    TMP DP  RH WIND       PRES   REMARKS
SIOUX FALLS    FOG       53  52  96 CALM      30.01S VSB 1/4
HURON          CLEAR     58  58 100 S5        29.99R FOG
CHAMBERLAIN    FOG       62  62 100 SW3       30.00F VSB<1/4
MITCHELL       FOG       59  59 100 S5        30.00F VSB 3/4
YANKTON          N/A     57  55  94 CALM      29.99F VSB 1/4
$$

ABBREVIATIONS USED IN REMARKS
   TC - TEMPERATURE IN CELSIUS
  WCI - WIND CHILL INDEX
   HX - HEAT INDEX
  VSB - VISIBILITY



USA.gov is the U.S. government's official web portal to all federal, state and local government web resources and services.